Regional Weather Roundup
Issued by NWS

Home | Current Version | Previous Version | Graphics & Text | Print | Product List | Glossary On
Versions: 1 2 3 4 5 6 7 8 9 10 11 12 13 14 15 16 17 18 19 20 21 22 23 24 25 26 27 28 29 30 31 32 33 34 35 36 37 38 39 40 41 42 43 44 45 46 47 48 49 50
315
ASUS43 KMPX 202301
RWRMN
WEATHER ROUNDUP FOR MINNESOTA
NATIONAL WEATHER SERVICE TWIN CITIES/CHANHASSEN MN
500 PM CST MON NOV 20 2017


NOTE: "FAIR" INDICATES FEW OR NO CLOUDS BELOW 12,000 FEET WITH NO
SIGNIFICANT WEATHER AND/OR OBSTRUCTIONS TO VISIBILITY. N/A MEANS
CURRENT SKY AND/OR WEATHER CONDITIONS ARE NOT AVAILABLE.

MNZ060>063-068>070-210000-
   Twin Cities Metro

CITY           SKY/WX    TMP DP  RH WIND       PRES   REMARKS
TWIN CITIES    CLOUDY    47  32  56 SW9       29.44F
ST PAUL        CLOUDY    45  31  58 CALM      29.45F
CRYSTAL        CLOUDY    44  28  53 S9        29.41F
BLAINE         MOCLDY    46  30  53 S12       29.41F
LAKEVILLE      PTCLDY    45  30  57 SW5       29.44F
EDEN PRAIRIE   PTCLDY    47  30  51 SW15      29.43F
SOUTH ST PAUL  CLOUDY    46  31  54 SW9       29.43F
LAKE ELMO      FAIR      43  32  65 SW9       29.44F
$$
MNZ001>005-007-008-013>017-022>024-027-028-210000-
   Northwest Minnesota

CITY           SKY/WX    TMP DP  RH WIND       PRES   REMARKS
BEMIDJI        CLOUDY    42  25  51 SW12G17   29.29R
HALLOCK        CLOUDY    39  32  75 W28       29.28R
ROSEAU         MOCLDY    39  30  70 W13G20    29.20S
WARROAD        CLOUDY    37  30  75 W15G22    29.19S
CROOKSTON      CLEAR     41  30  65 W25       29.33R
FOSSTON        CLOUDY    41  27  56 W16G23    29.31S
DETROIT LAKES  CLEAR     45  27  49 W9        29.38R
MOORHEAD       CLEAR     50  25  37 W23G31    29.41R
PARK RAPIDS    CLEAR     38  26  62 W10       29.32F
MAHNOMEN       FAIR      44  28  52 W28       29.34R
$$
MNZ006-009>011-018-025>026-210000-
   North Central Minnesota

CITY           SKY/WX    TMP DP  RH WIND       PRES   REMARKS
BAUDETTE       CLOUDY    39  27  62 SW9G20    29.19S
FLAG ISLAND    CLOUDY    37  27  65 SW10      29.15S
INTL FALLS       N/A     39  26  59 SW6       29.20S
WASKISH        CLOUDY    39  28  65 SW13G21   29.24S
BIG FORK       CLOUDY    39  27  60 SW9       29.25R
LONGVILLE      CLOUDY    39  25  56 SW8       29.30F
GRAND RAPIDS   CLOUDY    38  27  64 SW9       29.30R
CRANE LAKE     CLOUDY    37  27  65 S6        29.20F
ORR            CLOUDY    39  25  56 S8        29.19F
COOK           CLOUDY    37  27  65 S8        29.24S
WALKER         FAIR      41  24  51 W10G18    29.31R
$$
MNZ012-019>021-037-210000-
   Northeast Minnesota

CITY           SKY/WX    TMP DP  RH WIND       PRES   REMARKS
DULUTH         CLOUDY    35  28  75 SW15G22   29.32S WCI  25
ELY            CLEAR     37  27  65 S10G16    29.24F
HIBBING        CLOUDY    37  26  64 S7        29.28S
EVELETH        CLOUDY    36  25  64 SW9       29.30R
DULUTH HARBOR  CLOUDY    34  30  86 CALM      29.35F
TWO HARBORS    CLOUDY    32  27  80 CALM      29.31S
SILVER BAY     CLOUDY    30  28  93 CALM      29.31F
GRAND MARAIS     N/A     37  32  82 SE3       29.33F
G MARAIS ARPRT CLOUDY    28  25  86 SE5       29.28F FOG     WCI  23
$$
MNZ029>031-032-039>041-046>048-054>057-064-210000-
   West Central Minnesota

CITY           SKY/WX    TMP DP  RH WIND       PRES   REMARKS
FERGUS FALLS   CLEAR     39  27  60 W8        29.42R
WHEATON        CLEAR     46  21  36 W10       29.45S
MORRIS         CLOUDY    39  27  60 W8        29.43R
ALEXANDRIA     CLOUDY    40  28  62 SW8       29.42R
ELBOW LAKE     FAIR      38  26  61 W9        29.41S HAZE
WADENA         CLEAR     37  27  65 SW6       29.35F
GLENWOOD       CLOUDY    39  28  65 W12       29.43R
APPLETON         N/A     46  23  39 W10       29.46R
BENSON         CLOUDY    39  27  60 NW9       29.47R
ORTONVILLE     CLOUDY    48  25  40 MISG      29.47R
MADISON        CLOUDY    50  25  37 W8        29.47R
WILLMAR        FAIR      41  32  70 W9        29.46R
$$
MNZ033>034-036-042>043-049>051-058-059-210000-
   Central Minnesota

CITY           SKY/WX    TMP DP  RH WIND       PRES   REMARKS
ST CLOUD       CLOUDY    35  29  78 CALM      29.42R
SAUK CENTRE    FAIR      40  29  64 W8        29.42R
PAYNESVILLE    CLOUDY    39  31  72 SW7       29.44R
AITKIN         CLOUDY    36  27  69 S8        29.34S
PINE RIVER     CLOUDY    37  25  60 SW5       29.37F
BRAINERD       CLOUDY    37  28  70 SW12      29.37R
STAPLES        CLOUDY    37  25  60 SW7       29.36F
LONG PRAIRIE   FAIR      37  28  70 S7        29.41R
LITTLE FALLS   CLOUDY    34  25  69 SW3       29.42R
LITCHFIELD     PTCLDY    45  30  57 SW5       29.44R
BUFFALO        CLOUDY    42  30  62 S5        29.43R
MAPLE LAKE     CLOUDY    42  33  69 SW6       29.43R
HUTCHINSON     CLOUDY    43  31  60 S8        29.45R
$$
MNZ037-044-045-052-053-210000-
   East Central Minnesota

CITY           SKY/WX    TMP DP  RH WIND       PRES   REMARKS
PRINCETON      CLOUDY    39  30  70 W3        29.43R
MORA           PTCLDY    36  28  75 SW6       29.41S
CAMBRIDGE      CLOUDY    43  28  56 SW3       29.42R
RUSH CITY      CLOUDY    39  29  67 S7        29.41S
MOOSE LAKE     CLEAR     36  28  75 SW10      29.35R
HINCKLEY       FAIR      36  30  80 SW8       29.39S
CLOQUET        CLOUDY    36  27  69 SW12      29.33S
MCGREGOR       CLOUDY    36  30  80 SW10      29.36R
$$
MNZ071>073-080-081-089-090-097-098-210000-
   Southwest Minnesota

CITY           SKY/WX    TMP DP  RH WIND       PRES   REMARKS
MONTEVIDEO     CLOUDY    50  23  34 NW7       29.47R
GRANITE FALLS  CLOUDY    49  29  47 W7        29.48R
CANBY          CLOUDY    49  26  39 SW13G18   29.49R
MARSHALL       CLOUDY    49  27  42 W21       29.48R
REDWOOD FALLS  CLOUDY    48  27  44 SW13      29.46R
OLIVIA         PTCLDY    43  30  61 SW9       29.45R
PIPESTONE      CLOUDY    43  27  52 SW8       29.53R
WINDOM         CLOUDY    45  25  45 SW12      29.51R
WORTHINGTON    CLOUDY    45  27  49 SW16      29.53S
JACKSON        CLOUDY    45  28  53 SW6       29.53F
SLAYTON        CLOUDY    45  28  51 SW16      29.51R
$$
MNZ065>067-074>077-082>085-091>093-210000-
   South Central Minnesota

CITY           SKY/WX    TMP DP  RH WIND       PRES   REMARKS
MANKATO        PTCLDY    46  29  51 SW13      29.48F
NEW ULM        CLOUDY    45  27  49 SW3       29.48R
ST JAMES       CLOUDY    45  28  53 S6        29.51S
FAIRMONT       CLOUDY    44  30  57 SW12      29.52S
GLENCOE        CLOUDY    46  30  53 S9        29.44R
FARIBAULT      PTCLDY    46  30  53 S10       29.48F
OWATONNA       CLOUDY    45  32  61 S13       29.50S
WASECA         MOCLDY    43  30  61 SW12      29.51S
ALBERT LEA     CLOUDY    48  28  46 SW9       29.53R
$$
MNZ078>079-086>088-094>096-210000-
   Southeast Minnesota

CITY           SKY/WX    TMP DP  RH WIND       PRES   REMARKS
ROCHESTER      CLOUDY    45  33  63 SW15      29.51S
RED WING       MOCLDY    48  28  46 SW6       29.46F
STANTON        CLOUDY    47  32  56 S12       29.44F
DODGE CENTER   CLOUDY    45  30  57 SW12      29.51F
WINONA         PTCLDY    50  32  50 SW6       29.52S
PRESTON        CLOUDY    48  32  53 SW12      29.54R
$$
ABBREVIATIONS USED IN REMARKS
   TC - TEMPERATURES IN CELSIUS
  WCI - WIND CHILL INDEX
   HX - HEAT INDEX
  VSB - VISIBILITY
$$




USA.gov is the U.S. government's official web portal to all federal, state and local government web resources and services.